Time,TemperatureF,DewpointF,PressureIn,WindDirection,WindDirectionDegrees,WindSpeedMPH,WindSpeedGustMPH,Humidity,HourlyPrecipIn,Conditions,Clouds,dailyrainin,SoftwareType,DateUTC
2013-06-22 00:00:00,75.8,69.9,29.96,SW,233,0.0,3.0,82,0.00,CLR,FEW,0.00,WeatherDisplay:10.37,2013-06-21 22:00:00,
2013-06-22 01:00:00,74.9,69.7,29.96,WSW,250,0.0,3.0,84,0.00,CLR,FEW,0.00,WeatherDisplay:10.37,2013-06-21 23:00:00,
2013-06-22 02:00:00,74.0,68.5,29.95,ENE,59,1.0,2.0,83,0.00,CLR,FEW,0.00,WeatherDisplay:10.37,2013-06-22 00:00:00,
2013-06-22 03:00:00,73.3,68.2,29.94,ENE,78,0.0,3.0,84,0.00,CLR,FEW,0.00,WeatherDisplay:10.37,2013-06-22 01:00:00,
2013-06-22 04:00:00,72.4,68.4,29.93,NW,321,0.0,2.0,87,0.00,CLR,FEW,0.00,WeatherDisplay:10.37,2013-06-22 02:00:00,
2013-06-22 05:00:00,72.3,68.5,29.93,North,5,0.0,2.0,88,0.00,CLR,FEW,0.00,WeatherDisplay:10.37,2013-06-22 03:00:00,
2013-06-22 06:00:00,71.5,67.4,29.93,NE,34,0.0,4.0,87,0.00,CLR,FEW,0.00,WeatherDisplay:10.37,2013-06-22 04:00:00,
2013-06-22 07:00:00,74.3,69.1,29.93,North,350,1.0,2.0,84,0.00,CLR,FEW,0.00,WeatherDisplay:10.37,2013-06-22 05:00:00,
2013-06-22 09:00:00,80.0,69.7,29.97,NNW,328,0.0,4.0,71,0.00,CLR,FEW,0.00,WeatherDisplay:10.37,2013-06-22 07:00:00,
2013-06-22 10:00:00,83.5,68.1,29.96,South,191,2.0,6.0,60,0.00,CLR,FEW,0.00,WeatherDisplay:10.37,2013-06-22 08:00:00,
2013-06-22 11:00:00,86.1,65.3,29.96,SW,235,2.0,9.0,50,0.00,CLR,FEW,0.00,WeatherDisplay:10.37,2013-06-22 09:00:00,
2013-06-22 12:00:00,87.8,60.5,29.96,WSW,250,2.0,10.0,40,0.00,CLR,FEW,0.00,WeatherDisplay:10.37,2013-06-22 10:00:00,
2013-06-22 13:00:00,89.1,64.3,29.95,West,270,2.0,9.0,44,0.00,CLR,FEW,0.00,WeatherDisplay:10.37,2013-06-22 11:00:00,
2013-06-22 14:00:00,90.2,67.2,29.94,SSW,211,5.0,9.0,47,0.00,CLR,FEW,0.00,WeatherDisplay:10.37,2013-06-22 12:00:00,
2013-06-22 15:00:00,89.6,63.4,29.94,SSW,210,3.0,10.0,42,0.00,CLR,FEW,0.00,WeatherDisplay:10.37,2013-06-22 13:00:00,
2013-06-22 16:00:00,89.5,64.7,29.92,SW,229,3.0,12.0,44,0.00,CLR,FEW,0.00,WeatherDisplay:10.37,2013-06-22 14:00:00,
2013-06-22 17:00:00,86.3,63.7,29.91,SSW,204,3.0,10.0,47,0.00,CLR,FEW,0.00,WeatherDisplay:10.37,2013-06-22 15:00:00,
2013-06-22 18:00:00,87.9,59.8,29.91,SW,226,5.0,10.0,39,0.00,CLR,FEW,0.00,WeatherDisplay:10.37,2013-06-22 16:00:00,
2013-06-22 19:00:00,82.3,61.2,29.92,SW,227,3.0,12.0,49,0.00,CLR,FEW,0.00,WeatherDisplay:10.37,2013-06-22 17:00:00,
2013-06-22 20:00:00,78.7,63.7,29.94,WSW,248,3.0,12.0,60,0.00,CLR,FEW,0.00,WeatherDisplay:10.37,2013-06-22 18:00:00,
2013-06-22 21:00:00,75.6,64.3,29.95,WSW,241,0.0,9.0,68,0.00,CLR,FEW,0.00,WeatherDisplay:10.37,2013-06-22 19:00:00,
2013-06-22 22:00:00,74.8,65.2,29.96,SW,229,1.0,5.0,72,0.00,CLR,FEW,0.00,WeatherDisplay:10.37,2013-06-22 20:00:00,
2013-06-22 23:00:00,73.8,65.7,29.96,SW,227,1.0,4.0,76,0.00,CLR,FEW,0.00,WeatherDisplay:10.37,2013-06-22 21:00:00,